TimeEST,TemperatureF,Dew PointF,Humidity,Sea Level PressureIn,VisibilityMPH,Wind Direction,Wind SpeedMPH,Gust SpeedMPH,PrecipitationIn,Events,Conditions,WindDirDegrees,DateUTC
12:15 AM,26.6,26.6,100,30.42,10.0,Calm,Calm,-,N/A,,Clear,0,2013-12-28 05:15:00
12:35 AM,26.6,26.6,100,30.42,10.0,Calm,Calm,-,N/A,,Clear,0,2013-12-28 05:35:00
12:55 AM,26.6,26.6,100,30.42,10.0,Calm,Calm,-,N/A,,Clear,0,2013-12-28 05:55:00
1:15 AM,26.6,26.6,100,30.42,10.0,Calm,Calm,-,N/A,,Clear,0,2013-12-28 06:15:00
1:35 AM,26.6,26.6,100,30.42,10.0,Calm,Calm,-,N/A,,Clear,0,2013-12-28 06:35:00
1:55 AM,26.6,26.6,100,30.41,10.0,Calm,Calm,-,N/A,,Clear,0,2013-12-28 06:55:00
2:15 AM,26.6,26.6,100,30.41,10.0,Calm,Calm,-,N/A,,Clear,0,2013-12-28 07:15:00
2:35 AM,26.6,26.6,100,30.41,10.0,Calm,Calm,-,N/A,,Clear,0,2013-12-28 07:35:00
2:55 AM,26.6,26.6,100,30.41,10.0,Calm,Calm,-,N/A,,Clear,0,2013-12-28 07:55:00
3:15 AM,24.8,24.8,100,30.40,10.0,Calm,Calm,-,N/A,,Clear,0,2013-12-28 08:15:00
3:35 AM,24.8,24.8,100,30.40,10.0,Calm,Calm,-,N/A,,Clear,0,2013-12-28 08:35:00
3:55 AM,24.8,24.8,100,30.39,10.0,Calm,Calm,-,N/A,,Clear,0,2013-12-28 08:55:00
4:15 AM,26.6,26.6,100,30.39,10.0,Calm,Calm,-,N/A,,Clear,0,2013-12-28 09:15:00
4:35 AM,24.8,24.8,100,30.40,10.0,Calm,Calm,-,N/A,,Clear,0,2013-12-28 09:35:00
4:55 AM,24.8,24.8,100,30.40,10.0,Calm,Calm,-,N/A,,Clear,0,2013-12-28 09:55:00
5:15 AM,24.8,24.8,100,30.40,10.0,Calm,Calm,-,N/A,,Clear,0,2013-12-28 10:15:00
5:35 AM,24.8,24.8,100,30.39,10.0,Calm,Calm,-,N/A,,Clear,0,2013-12-28 10:35:00
5:55 AM,24.8,24.8,100,30.39,10.0,Calm,Calm,-,N/A,,Clear,0,2013-12-28 10:55:00
6:15 AM,24.8,24.8,100,30.39,10.0,Calm,Calm,-,N/A,,Clear,0,2013-12-28 11:15:00
6:35 AM,24.8,24.8,100,30.39,10.0,Calm,Calm,-,N/A,,Clear,0,2013-12-28 11:35:00
6:55 AM,24.8,24.8,100,30.39,10.0,Calm,Calm,-,N/A,,Clear,0,2013-12-28 11:55:00
7:15 AM,24.8,24.8,100,30.40,10.0,Calm,Calm,-,N/A,,Clear,0,2013-12-28 12:15:00
7:35 AM,24.8,24.8,100,30.39,10.0,Calm,Calm,-,N/A,,Clear,0,2013-12-28 12:35:00
7:55 AM,24.8,24.8,100,30.39,10.0,Calm,Calm,-,N/A,,Clear,0,2013-12-28 12:55:00
8:15 AM,24.8,24.8,100,30.40,10.0,Calm,Calm,-,N/A,,Clear,0,2013-12-28 13:15:00
8:35 AM,24.8,24.8,100,30.40,10.0,Calm,Calm,-,N/A,,Clear,0,2013-12-28 13:35:00
8:55 AM,26.6,26.6,100,30.41,10.0,Calm,Calm,-,N/A,,Clear,0,2013-12-28 13:55:00
9:15 AM,28.4,28.4,100,30.42,10.0,North,-9999.0,-,N/A,,Clear,0,2013-12-28 14:15:00
9:35 AM,32.0,30.2,93,30.42,10.0,Calm,Calm,-,N/A,,Clear,0,2013-12-28 14:35:00
9:55 AM,35.6,32.0,87,30.41,10.0,NNE,3.5,-,N/A,,Clear,20,2013-12-28 14:55:00
10:15 AM,39.2,26.6,61,30.43,10.0,NE,3.5,-,N/A,,Clear,40,2013-12-28 15:15:00
10:35 AM,44.6,28.4,53,30.42,10.0,Calm,Calm,-,N/A,,Clear,0,2013-12-28 15:35:00
10:55 AM,44.6,26.6,49,30.41,10.0,Calm,Calm,-,N/A,,Clear,0,2013-12-28 15:55:00
11:15 AM,48.2,26.6,43,30.41,10.0,Calm,Calm,-,N/A,,Clear,0,2013-12-28 16:15:00
11:35 AM,48.2,24.8,40,30.40,10.0,Calm,Calm,-,N/A,,Clear,0,2013-12-28 16:35:00
11:55 AM,50.0,24.8,37,30.38,10.0,Calm,Calm,-,N/A,,Clear,0,2013-12-28 16:55:00
12:15 PM,53.6,24.8,33,30.35,10.0,NE,4.6,-,N/A,,Clear,40,2013-12-28 17:15:00
12:35 PM,53.6,24.8,33,30.34,10.0,NE,3.5,-,N/A,,Clear,50,2013-12-28 17:35:00
12:55 PM,53.6,24.8,33,30.33,10.0,East,3.5,-,N/A,,Clear,100,2013-12-28 17:55:00
1:15 PM,55.4,23.0,29,30.31,10.0,Calm,Calm,-,N/A,,Clear,0,2013-12-28 18:15:00
1:35 PM,55.4,23.0,29,30.31,10.0,Calm,Calm,-,N/A,,Clear,0,2013-12-28 18:35:00
1:55 PM,55.4,23.0,29,30.30,10.0,Calm,Calm,-,N/A,,Clear,0,2013-12-28 18:55:00
2:15 PM,55.4,23.0,29,30.29,10.0,NNE,3.5,-,N/A,,Clear,20,2013-12-28 19:15:00
2:35 PM,55.4,26.6,33,30.29,10.0,Calm,Calm,-,N/A,,Clear,0,2013-12-28 19:35:00
2:55 PM,55.4,28.4,36,30.29,10.0,NW,5.8,-,N/A,,Clear,320,2013-12-28 19:55:00
3:15 PM,53.6,26.6,35,30.29,10.0,NNW,3.5,-,N/A,,Clear,340,2013-12-28 20:15:00
3:35 PM,53.6,26.6,35,30.29,10.0,Calm,Calm,-,N/A,,Clear,0,2013-12-28 20:35:00
3:55 PM,53.6,28.4,38,30.28,10.0,Calm,Calm,-,N/A,,Clear,0,2013-12-28 20:55:00
4:15 PM,53.6,32.0,44,30.28,10.0,Calm,Calm,-,N/A,,Partly Cloudy,0,2013-12-28 21:15:00
4:35 PM,51.8,32.0,47,30.28,10.0,Calm,Calm,-,N/A,,Scattered Clouds,0,2013-12-28 21:35:00
4:55 PM,48.2,37.4,66,30.26,10.0,Calm,Calm,-,N/A,,Partly Cloudy,0,2013-12-28 21:55:00
5:15 PM,48.2,35.6,62,30.25,10.0,Calm,Calm,-,N/A,,Clear,0,2013-12-28 22:15:00
5:35 PM,48.2,35.6,62,30.23,10.0,Calm,Calm,-,N/A,,Scattered Clouds,0,2013-12-28 22:35:00
5:55 PM,48.2,32.0,54,30.23,10.0,NNE,4.6,-,N/A,,Partly Cloudy,30,2013-12-28 22:55:00
6:15 PM,48.2,32.0,54,30.23,10.0,NNE,3.5,-,N/A,,Mostly Cloudy,30,2013-12-28 23:15:00
6:35 PM,48.2,32.0,54,30.23,10.0,Calm,Calm,-,N/A,,Overcast,0,2013-12-28 23:35:00
6:55 PM,46.4,32.0,57,30.23,10.0,Calm,Calm,-,N/A,,Overcast,0,2013-12-28 23:55:00
7:15 PM,46.4,35.6,66,30.23,10.0,Calm,Calm,-,N/A,,Overcast,0,2013-12-29 00:15:00
7:35 PM,46.4,35.6,66,30.24,10.0,Calm,Calm,-,N/A,,Overcast,0,2013-12-29 00:35:00
7:55 PM,46.4,32.0,57,30.23,10.0,Calm,Calm,-,N/A,,Overcast,0,2013-12-29 00:55:00
8:15 PM,48.2,32.0,54,30.20,10.0,ENE,3.5,-,N/A,,Mostly Cloudy,70,2013-12-29 01:15:00
8:35 PM,48.2,28.4,46,30.20,10.0,Calm,Calm,-,N/A,,Mostly Cloudy,0,2013-12-29 01:35:00
8:55 PM,48.2,28.4,46,30.19,10.0,Calm,Calm,-,N/A,,Mostly Cloudy,0,2013-12-29 01:55:00
9:15 PM,48.2,32.0,54,30.19,10.0,Calm,Calm,-,N/A,,Mostly Cloudy,0,2013-12-29 02:15:00
9:35 PM,46.4,33.8,62,30.19,10.0,Calm,Calm,-,N/A,Rain,Light Rain,0,2013-12-29 02:35:00
9:55 PM,46.4,35.6,66,30.19,10.0,North,-9999.0,-,N/A,,Scattered Clouds,0,2013-12-29 02:55:00
10:15 PM,44.6,41.0,87,30.17,10.0,Calm,Calm,-,N/A,,Scattered Clouds,0,2013-12-29 03:15:00
10:35 PM,46.4,35.6,66,30.18,10.0,NW,5.8,-,N/A,Rain,Light Rain,320,2013-12-29 03:35:00
10:55 PM,46.4,39.2,76,30.16,10.0,Calm,Calm,-,N/A,Rain,Light Rain,0,2013-12-29 03:55:00
11:15 PM,42.8,42.8,100,30.15,5.0,NNE,4.6,-,N/A,Rain,Light Rain,20,2013-12-29 04:15:00
11:35 PM,41.0,41.0,100,30.12,3.0,East,3.5,-,0.04,Rain,Light Rain,90,2013-12-29 04:35:00
11:55 PM,41.0,41.0,100,30.11,4.0,Calm,Calm,-,0.05,Rain,Light Rain,0,2013-12-29 04:55:00